Wetbulb
55.64 57.74 59.97 61.01 61.45 61.25 61.51 62.14 59.69 55.98 55.38 54.72 54.13 53.73 53.32 53.36 53.47 53.55 52.71 52.01 52.22 51.97 51.12 51.23 51.66 50.63 49.80 49.35 48.55 48.57 48.64 47.77
56.72 57.42 59.94 60.84 61.19 61.14 61.38 59.21 57.32 54.97 54.98 53.53 53.31 52.95 53.10 52.92 51.47 52.50 51.85 51.24 50.80 51.22 50.85 50.78 50.53 49.06 48.28 48.08 47.34 46.52 46.06 47.50
55.38 57.87 59.82 60.36 60.41 61.08 60.71 59.99 56.34 55.07 55.77 56.17 57.15 56.07 54.66 51.77 50.84 50.40 50.51 50.71 50.75 50.06 50.21 49.48 49.03 47.98 47.53 47.07 46.71 45.01 45.48 46.69
55.78 57.05 58.83 59.38 59.03 59.33 59.90 58.87 56.07 56.25 56.03 55.94 54.68 53.20 51.17 49.96 49.63 49.39 49.70 49.93 49.41 49.68 49.38 49.28 48.70 48.30 46.26 46.33 46.04 44.82 42.44 44.67
55.23 55.03 52.74 52.48 51.90 53.60 55.14 56.07 55.01 54.81 54.42 54.14 53.63 53.67 52.83 51.32 50.27 49.91 49.79 48.59 48.67 48.88 48.69 48.36 48.00 47.80 45.96 45.67 45.80 45.12 43.66 40.71
51.68 50.80 51.02 50.68 51.55 52.49 53.35 53.27 53.05 53.10 53.26 53.57 52.65 51.12 49.92 49.36 49.38 48.57 49.30 49.54 48.83 48.47 48.09 47.40 47.34 47.02 46.22 45.20 44.99 43.81 43.61 41.55
49.95 50.73 50.83 51.37 52.50 52.74 52.62 52.67 51.93 52.24 52.51 52.18 51.54 50.38 49.58 49.45 49.65 49.84 50.04 49.74 49.30 48.33 46.55 46.73 46.75 45.72 44.82 44.38 44.35 43.43 42.59 42.04
50.14 50.26 50.65 50.99 50.84 51.57 52.06 52.07 50.71 51.22 51.54 51.53 51.42 50.93 50.23 49.47 49.19 48.81 48.15 48.22 47.68 47.00 46.04 45.92 45.63 45.34 45.20 44.79 44.24 43.72 42.82 40.91
50.20 50.54 51.06 50.85 50.18 50.64 50.77 50.73 49.88 50.47 50.69 50.24 49.72 48.94 48.97 48.63 48.28 48.17 47.58 47.04 46.74 46.53 45.38 45.52 45.48 45.35 44.78 44.51 43.91 43.09 42.89 40.68
50.10 50.08 49.74 49.26 49.11 49.24 49.74 49.62 49.20 49.36 49.32 48.90 48.68 48.18 47.75 47.36 47.07 46.75 46.01 45.89 45.33 45.54 45.12 44.56 44.83 44.70 43.96 43.55 42.27 41.16 40.66 40.09
48.55 48.18 48.00 48.15 48.57 48.02 48.11 48.00 47.49 48.37 48.77 48.08 46.95 46.31 45.63 45.41 45.61 45.29 45.48 45.64 45.62 45.34 45.43 44.73 43.44 42.49 41.58 40.95 39.73 39.80 38.70 39.13
47.33 47.24 47.58 46.95 46.47 46.29 46.28 45.06 45.80 46.25 46.37 45.13 44.43 44.45 44.58 44.99 44.86 44.74 44.60 44.73 44.53 43.99 43.43 42.87 41.77 39.29 40.53 41.22 39.28 38.29 37.06 37.36
46.83 46.95 45.93 45.29 44.89 45.00 43.07 43.85 45.08 44.51 43.13 43.15 43.21 43.90 44.31 43.43 42.97 42.94 43.40 42.40 42.54 41.92 41.85 41.09 41.35 41.61 40.83 39.88 37.53 37.38 36.07 35.35
44.83 45.01 45.03 44.78 44.19 43.78 42.93 43.74 43.44 42.55 42.51 42.39 42.78 43.04 42.40 41.67 41.91 42.14 41.99 41.50 41.80 41.99 40.93 41.22 40.30 39.51 37.50 37.06 36.01 34.88 34.01 33.80
44.39 43.94 43.58 43.21 43.71 43.35 41.66 41.33 42.05 42.19 41.35 41.46 41.69 42.06 41.70 41.68 41.67 41.12 40.78 41.20 41.32 41.65 41.04 39.08 38.36 36.66 36.12 35.03 33.95 34.18 34.24 33.67
42.33 42.89 42.77 43.04 42.82 41.86 40.16 40.86 41.13 40.88 40.48 39.73 41.09 41.84 41.85 41.11 40.53 40.32 40.55 40.69 40.83 39.05 36.08 35.47 35.67 35.41 34.53 35.09 34.63 33.43 32.50 31.04
42.15 42.42 42.37 42.59 42.01 40.20 39.19 39.55 39.64 39.64 39.31 38.73 40.63 41.17 40.41 40.09 39.81 39.68 39.56 39.48 39.44 38.79 35.77 35.06 33.85 34.16 32.63 31.27 31.48 31.53 30.01 28.43
41.72 41.95 42.34 42.57 40.45 39.22 38.92 38.84 38.83 37.95 37.48 38.55 39.42 39.33 38.89 38.68 38.53 38.04 37.73 38.39 37.92 36.72 34.83 33.83 33.18 32.97 29.93 29.49 28.82 30.18 28.10 27.39
41.82 42.13 41.59 40.00 39.15 38.72 38.12 37.96 37.12 36.65 37.34 38.42 38.42 38.38 37.54 37.76 37.21 36.62 36.83 37.75 36.84 36.26 33.80 32.70 32.37 30.21 28.35 27.78 27.33 28.46 27.61 26.79
MSLP
1020.79 1020.75 1020.68 1021.01 1021.46 1021.87 1022.30 1023.06 1023.31 1024.47 1024.34 1024.39 1025.01 1025.29 1025.14 1024.92 1024.98 1025.38 1025.47 1025.78 1025.88 1025.81 1025.97 1026.18 1026.17 1025.85 1026.05 1026.15 1026.07 1025.72 1025.44 1025.16
1021.02 1020.97 1021.06 1021.25 1021.75 1021.98 1022.21 1022.50 1022.95 1023.71 1024.47 1024.81 1024.90 1025.07 1025.02 1025.27 1025.41 1025.71 1025.72 1026.05 1026.26 1026.05 1026.08 1026.28 1026.25 1026.23 1026.52 1026.53 1026.18 1025.82 1025.30 1025.31
1020.99 1020.88 1020.99 1021.27 1021.59 1021.98 1022.39 1022.56 1022.84 1023.51 1023.75 1023.81 1024.10 1024.57 1024.95 1025.26 1025.76 1026.09 1026.22 1026.26 1026.16 1026.18 1026.24 1026.33 1026.43 1026.35 1026.50 1026.51 1026.38 1025.94 1025.70 1025.62
1020.94 1021.12 1021.18 1021.45 1021.81 1021.94 1022.22 1022.61 1023.00 1023.42 1023.73 1024.20 1024.64 1024.97 1025.44 1025.74 1026.11 1026.13 1026.23 1026.15 1026.13 1026.13 1026.25 1026.32 1026.50 1026.53 1026.55 1026.62 1026.56 1026.39 1025.90 1025.80
1021.05 1021.34 1021.56 1021.91 1022.23 1022.14 1022.35 1022.78 1023.27 1023.82 1024.28 1024.39 1024.48 1024.62 1024.95 1025.58 1025.79 1025.94 1026.07 1026.29 1026.30 1026.28 1026.25 1026.28 1026.55 1026.55 1026.45 1026.41 1026.34 1026.35 1026.12 1025.80
1021.30 1021.60 1021.60 1021.75 1022.53 1022.95 1023.19 1023.42 1023.77 1023.96 1024.19 1024.35 1024.47 1024.76 1025.22 1025.54 1025.78 1025.96 1026.02 1026.09 1026.20 1026.18 1026.25 1026.41 1026.34 1026.26 1026.38 1026.39 1026.37 1026.31 1026.30 1026.17
1021.52 1021.72 1021.93 1021.85 1022.14 1022.41 1022.80 1023.62 1023.76 1023.84 1024.06 1024.43 1024.65 1024.98 1025.31 1025.42 1025.60 1025.64 1025.69 1025.74 1025.77 1025.93 1026.20 1026.30 1026.26 1026.22 1026.21 1026.15 1026.18 1026.25 1026.20 1026.18
1021.24 1021.51 1021.97 1021.98 1022.37 1022.83 1023.03 1023.46 1023.67 1024.02 1024.31 1024.59 1024.90 1025.16 1025.35 1025.47 1025.67 1025.78 1025.81 1025.64 1025.65 1025.82 1025.98 1025.98 1025.91 1025.92 1025.88 1025.80 1025.83 1025.86 1025.85 1025.80
1021.38 1021.90 1022.35 1022.61 1022.99 1023.19 1023.41 1023.75 1024.04 1024.28 1024.43 1024.81 1025.26 1025.52 1025.73 1025.88 1025.98 1025.93 1025.84 1025.79 1025.64 1025.64 1025.67 1025.69 1025.62 1025.57 1025.69 1025.71 1025.51 1025.62 1025.76 1025.61
1021.38 1022.07 1022.45 1022.95 1023.44 1023.75 1023.99 1024.06 1024.23 1024.43 1024.73 1025.08 1025.42 1025.77 1025.97 1026.03 1026.07 1026.10 1026.03 1025.94 1025.68 1025.61 1025.55 1025.35 1025.27 1025.44 1025.45 1025.42 1025.30 1025.37 1025.46 1025.38
1021.61 1022.29 1022.80 1023.43 1023.85 1024.16 1024.25 1024.36 1024.36 1024.66 1024.94 1025.30 1025.67 1025.94 1026.15 1026.24 1026.15 1025.99 1025.92 1025.75 1025.56 1025.28 1024.98 1025.02 1025.15 1025.30 1025.21 1025.27 1025.03 1025.03 1025.17 1025.21
1021.73 1022.48 1023.10 1023.57 1023.96 1024.29 1024.52 1024.72 1024.77 1025.02 1025.23 1025.66 1025.87 1025.96 1025.99 1025.94 1025.98 1025.90 1025.76 1025.64 1025.24 1025.11 1025.02 1024.87 1024.85 1024.86 1024.80 1024.73 1024.84 1024.82 1024.95 1025.06
1021.90 1022.61 1023.16 1023.59 1024.03 1024.36 1024.69 1024.83 1024.84 1025.08 1025.52 1025.67 1025.80 1025.86 1025.84 1025.90 1025.97 1025.99 1025.92 1025.67 1025.51 1025.25 1024.92 1024.71 1024.63 1024.62 1024.56 1024.50 1024.58 1024.67 1024.84 1024.95
1022.08 1022.71 1023.16 1023.58 1023.92 1024.21 1024.49 1024.71 1024.89 1025.34 1025.42 1025.54 1025.60 1025.75 1025.94 1026.12 1026.17 1026.04 1025.81 1025.61 1025.32 1025.02 1024.81 1024.66 1024.61 1024.53 1024.53 1024.63 1024.75 1024.80 1025.01 1025.11
1022.02 1022.66 1023.09 1023.45 1023.64 1023.85 1024.39 1024.77 1025.03 1025.26 1025.47 1025.51 1025.69 1025.98 1026.14 1026.15 1026.09 1025.86 1025.65 1025.46 1025.13 1024.92 1024.72 1024.61 1024.59 1024.56 1024.61 1024.85 1024.98 1025.06 1025.09 1025.09
1021.83 1022.28 1022.79 1023.05 1023.39 1023.92 1024.38 1024.64 1025.04 1025.33 1025.42 1025.51 1025.68 1025.91 1026.00 1026.00 1025.85 1025.71 1025.51 1025.32 1025.01 1024.90 1024.92 1024.90 1024.91 1024.83 1024.85 1025.02 1025.12 1025.06 1025.03 1024.98
1021.50 1022.02 1022.44 1022.77 1023.23 1023.66 1024.20 1024.69 1025.01 1025.21 1025.27 1025.35 1025.57 1025.72 1025.86 1025.74 1025.65 1025.54 1025.34 1025.09 1024.73 1024.64 1024.83 1024.93 1025.08 1025.05 1025.51 1025.45 1025.31 1025.15 1025.13 1024.97
1021.14 1021.63 1022.02 1022.49 1023.02 1023.61 1024.18 1024.52 1024.79 1025.01 1025.12 1025.17 1025.36 1025.60 1025.56 1025.54 1025.46 1025.27 1025.04 1024.90 1024.76 1024.73 1024.82 1025.00 1025.11 1025.24 1025.60 1025.54 1025.50 1025.22 1025.15 1024.89
1020.75 1021.29 1021.87 1022.47 1023.06 1023.69 1024.15 1024.35 1024.62 1024.79 1024.90 1025.06 1025.24 1025.23 1025.22 1025.24 1025.19 1024.97 1024.77 1024.63 1024.54 1024.53 1024.70 1024.95 1025.12 1025.44 1025.67 1025.59 1025.53 1025.14 1025.00 1024.76
Wind_Speed
5 6 8 11 14 15 15 10 9 8 5 6 4 3 4 4 5 3 5 6 7 6 6 5 3 4 5 5 5 5 5 6
5 8 11 14 15 15 13 12 8 8 5 4 4 3 3 3 4 6 7 7 6 6 4 4 4 5 5 5 5 7 6 7
7 10 12 12 12 11 10 10 12 10 9 5 1 3 3 5 4 6 6 6 5 5 4 4 4 4 6 6 6 5 4 5
10 10 10 10 9 9 9 9 12 9 5 3 4 6 4 3 3 3 3 4 5 5 4 3 3 2 3 4 5 6 5 4
10 10 8 8 6 9 10 10 9 6 4 4 4 1 2 2 2 2 2 1 3 2 2 3 2 2 3 3 3 3 4 5
11 11 11 10 7 6 6 8 7 6 5 5 4 6 4 4 3 2 2 3 3 3 3 1 1 2 1 1 2 3 3 4
9 9 9 9 8 8 8 7 7 7 7 7 8 7 5 3 1 2 3 3 4 4 3 2 3 4 4 4 4 5 4 4
10 10 8 8 8 8 8 7 9 8 8 8 6 5 3 2 4 4 6 5 4 5 6 6 6 6 6 5 5 5 5 5
8 8 7 7 7 8 8 7 7 6 6 6 5 5 3 4 4 6 6 6 6 6 6 7 8 7 5 6 4 5 5 5
10 7 7 8 7 6 6 6 5 5 5 4 5 4 4 4 6 5 5 6 5 6 7 9 8 6 7 6 4 6 5 6
9 9 9 7 6 5 5 4 5 5 5 5 3 2 1 2 3 5 6 6 6 7 9 8 6 5 4 5 4 7 6 6
10 9 8 6 6 5 4 4 5 6 6 4 4 2 2 3 3 5 6 8 10 11 10 9 6 5 5 8 8 7 7 8
10 10 8 7 6 5 4 4 5 7 4 4 2 1 2 4 5 7 8 9 10 10 9 6 6 8 8 7 6 6 6 6
9 8 7 7 6 6 5 4 6 4 3 0 0 1 3 4 5 7 9 10 10 9 7 8 7 6 5 2 3 3 3 5
10 7 7 5 4 4 4 4 3 2 3 3 3 2 3 4 6 8 9 10 10 8 7 7 4 1 1 2 1 3 5 7
9 8 7 6 5 5 5 4 3 3 4 4 4 4 4 5 7 8 9 9 7 6 2 4 4 1 3 2 3 6 7 9
10 9 8 8 8 7 5 4 3 2 4 5 4 3 5 6 8 9 9 8 8 6 3 1 2 3 7 7 7 6 8 9
11 11 10 8 7 6 6 4 1 3 4 4 3 4 6 7 8 8 9 7 5 2 1 3 3 4 6 7 7 6 8 9
10 9 7 6 7 6 3 1 3 3 3 3 4 4 6 7 7 9 8 6 5 4 3 4 3 3 5 6 7 6 8 9
Wind_Direction
59 91 116 127 130 125 124 122 103 40 88 106 142 130 143 122 100 96 104 99 101 95 79 69 47 49 35 14 350 345 329 345
110 118 131 129 132 131 133 128 140 123 156 152 157 167 127 90 94 93 92 84 82 82 81 64 46 43 36 11 347 348 346 351
128 135 138 143 146 141 139 150 146 167 173 171 121 143 100 99 88 74 80 98 93 82 74 67 52 38 28 17 14 345 335 5
139 134 136 134 142 151 163 151 158 169 162 130 105 99 109 133 123 104 103 92 80 73 75 84 87 56 35 26 11 0 338 345
138 142 130 117 113 123 139 147 148 138 158 177 166 115 143 94 134 134 111 86 82 54 150 160 124 83 62 23 9 345 330 327
144 147 141 132 116 98 104 117 121 117 118 128 122 96 95 110 122 170 235 238 234 269 241 213 134 71 75 314 282 295 307 305
150 147 159 145 137 134 123 139 119 112 103 98 98 107 117 114 168 279 278 284 285 289 277 247 205 213 218 222 225 240 261 265
167 167 174 142 129 123 120 121 96 91 91 89 93 103 99 350 335 328 316 305 299 289 242 228 226 226 230 253 250 263 263 272
176 173 160 132 117 110 104 110 111 102 95 93 69 48 12 342 327 321 309 305 299 290 242 239 239 241 256 283 262 270 265 267
174 163 140 126 129 128 132 118 114 118 104 79 53 30 7 342 331 322 308 302 292 270 252 249 255 250 303 296 291 291 288 287
166 149 135 137 143 131 119 132 108 83 94 74 66 73 8 323 330 334 332 321 297 282 273 278 271 298 304 281 289 276 272 279
156 142 143 144 131 143 132 103 111 105 102 120 131 98 32 18 354 339 332 321 313 309 303 290 271 243 246 277 255 262 272 282
150 153 158 157 145 138 143 138 114 94 122 125 97 74 35 5 355 345 330 315 313 307 300 278 284 292 295 269 266 296 294 283
159 164 173 163 160 161 154 122 101 153 132 170 276 30 4 349 329 319 321 323 320 314 298 293 294 311 300 300 309 324 305 303
172 175 171 166 161 145 141 137 156 178 259 301 296 281 293 314 314 322 329 329 326 322 323 313 297 247 29 76 57 330 319 315
184 183 177 175 173 171 168 175 194 252 278 282 258 257 291 301 322 331 330 325 320 330 347 9 354 96 76 63 356 342 330 322
188 183 180 189 194 179 162 191 234 267 282 280 260 266 293 322 330 322 318 319 314 316 356 216 147 84 71 46 4 337 328 321
188 184 191 194 170 161 182 204 281 281 273 262 254 277 310 322 316 314 315 317 311 326 335 168 121 88 43 27 13 333 323 325
187 184 175 159 153 167 181 236 264 264 260 257 273 296 305 305 306 311 314 300 279 284 187 159 147 78 36 20 1 335 327 325